Location: Newark
(35.6799°N, 139.7636°E)
Time: 13:04:11
(UTC+00:00)

Vanguard 1 Rocket - Pass Details

Date: 13 December 2019
Orbit: 650 x 4226 km, 34.3° (Epoch: 17 January)

Event Time Altitude Azimuth Distance (km) Brightness Sun altitude
Rises 08:17:12 0° 214° (SW) 8,429 13.3 -9.9°
Reaches altitude 10° 08:23:47 10° 208° (SSW) 7,417 12.8 -11.1°
Maximum altitude 08:45:58 41° 148° (SSE) 4,420 10.7 -15.4°
Enters shadow 08:57:47 19° 92° (E) 4,685 10.4 -17.7°
